WA0LM Weather Reports


time (UTC)temp
C
wind
direction
speed
KPH
gust
KPH
rain 1hr
cm
rain 24hr
cm
rain mn
cm
humidity
%
barometer
mb
20260504190038 9 320 40.2 46.7 0.00 0.00 0.00 55 1000.7
20260504185536 9 282 30.6 48.3 0.00 0.00 0.00 57 1000.5
20260504185032 9 274 29.0 43.5 0.00 0.00 0.00 58 1000.5
20260504184527 8 284 41.8 56.3 0.00 0.00 0.00 55 1000.3
20260504184023 8 290 32.2 43.5 0.00 0.00 0.00 55 1000.3
20260504183521 9 261 35.4 51.5 0.00 0.00 0.00 55 1000.3
20260504183019 10 264 24.1 41.8 0.00 0.00 0.00 56 1000.0
20260504182515 9 302 35.4 37.0 0.00 0.00 0.00 54 1000.1
20260504182012 9 339 29.0 46.7 0.00 0.00 0.00 59 999.9
20260504181509 8 303 25.7 43.5 0.00 0.00 0.00 59 999.8
20260504181008 8 304 37.0 45.1 0.00 0.00 0.00 58 999.8
20260504180506 8 316 37.0 40.2 0.00 0.00 0.00 58 999.8
20260504180004 8 294 30.6 48.3 0.00 0.00 0.00 58 999.8
20260504175501 8 321 30.6 45.1 0.00 0.00 0.00 58 999.6
20260504174958 8 333 41.8 45.1 0.00 0.00 0.00 58 999.5
20260504174456 8 309 30.6 43.5 0.00 0.00 0.00 54 999.4
20260504173953 8 314 30.6 45.1 0.00 0.00 0.00 56 999.4
20260504173449 9 291 32.2 54.7 0.00 0.00 0.00 58 999.2
20260504172947 8 306 32.2 43.5 0.00 0.00 0.00 63 999.3
20260504172443 8 312 37.0 48.3 0.00 0.00 0.00 59 999.2
20260504171940 9 322 24.1 37.0 0.00 0.00 0.00 62 999.1
20260504171437 9 313 27.4 38.6 0.00 0.00 0.00 60 999.2
20260504170934 9 318 30.6 38.6 0.00 0.00 0.00 57 999.0
20260504170430 9 301 32.2 51.5 0.00 0.00 0.00 58 998.9
20260504160349 8 275 30.6 49.9 0.00 0.00 0.00 61 998.3
20260504150814 10 323 33.8 49.9 0.00 0.00 0.00 63 997.4
20260504150310 9 300 38.6 56.3 0.00 0.00 0.00 61 997.6
20260504141241 10 291 40.2 51.5 0.00 0.00 0.00 60 996.4
20260504140737 10 289 27.4 51.5 0.00 0.00 0.00 59 996.4
20260504140232 10 287 27.4 53.1 0.00 0.00 0.00 63 996.2
20260504130701 10 275 24.1 35.4 0.00 0.00 0.00 66 996.0
20260504130157 10 287 22.5 35.4 0.00 0.00 0.00 68 995.9
20260504120121 10 318 35.4 40.2 0.00 0.00 0.00 63 994.9
20260504110549 11 305 22.5 25.7 0.00 0.00 0.00 67 994.0
20260504100510 13 296 30.6 38.6 0.00 0.00 0.00 60 993.2
20260504081903 15 221 17.7 22.5 0.00 0.00 0.00 44 992.7
20260504081400 15 199 4.8 20.9 0.00 0.00 0.00 43 992.6
20260504080856 15 207 14.5 20.9 0.00 0.00 0.00 43 992.9
20260504080353 15 204 9.7 22.5 0.00 0.00 0.00 45 993.0
20260504070321 15 188 4.8 16.1 0.00 0.00 0.00 44 994.4
20260504060241 14 236 19.3 22.5 0.00 0.00 0.00 44 996.0
20260504050709 15 217 14.5 17.7 0.00 0.00 0.00 44 996.9
20260504050206 15 190 9.7 14.5 0.00 0.00 0.00 42 997.0
20260504045704 15 193 6.4 19.3 0.00 0.00 0.00 43 997.3
20260504045204 15 226 4.8 20.9 0.00 0.00 0.00 44 997.0
20260504044702 15 180 4.8 17.7 0.00 0.00 0.00 44 997.2
20260504044159 15 201 6.4 16.1 0.00 0.00 0.00 47 997.5
20260504043655 15 203 6.4 11.3 0.00 0.00 0.00 46 997.6
20260504043152 15 172 3.2 16.1 0.00 0.00 0.00 46 997.6
20260504042650 15 194 6.4 9.7 0.00 0.00 0.00 45 997.9
20260504042146 15 201 3.2 11.3 0.00 0.00 0.00 46 997.9
20260504041642 15 146 3.2 12.9 0.00 0.00 0.00 44 998.0
20260504041138 15 198 4.8 9.7 0.00 0.00 0.00 44 998.2
20260504040636 15 199 9.7 14.5 0.00 0.00 0.00 46 998.3
20260504040133 15 190 4.8 14.5 0.00 0.00 0.00 45 998.4
20260504035629 15 188 3.2 8.0 0.00 0.00 0.00 43 998.7
20260504035126 15 207 9.7 14.5 0.00 0.00 0.00 44 998.8
20260504034624 15 152 1.6 8.0 0.00 0.00 0.00 44 998.8
20260504034120 15 167 3.2 11.3 0.00 0.00 0.00 43 999.0
20260504033618 15 179 3.2 6.4 0.00 0.00 0.00 43 999.2
20260504033115 15 126 3.2 6.4 0.00 0.00 0.00 42 999.2
20260504032612 15 162 1.6 8.0 0.00 0.00 0.00 42 999.3
20260504032109 15 149 3.2 12.9 0.00 0.00 0.00 42 999.5
20260504031606 15 197 6.4 6.4 0.00 0.00 0.00 43 999.5
20260504031102 15 144 4.8 4.8 0.00 0.00 0.00 43 999.6
20260504030559 15 167 4.8 8.0 0.00 0.00 0.00 43 999.8
20260504030056 15 120 6.4 6.4 0.00 0.00 0.00 43 999.9
20260504025553 15 143 1.6 6.4 0.00 0.00 0.00 44 1000.1
20260504025050 15 146 3.2 6.4 0.00 0.00 0.00 43 1000.1
20260504024547 15 144 3.2 4.8 0.00 0.00 0.00 42 1000.3
20260504024044 15 142 3.2 6.4 0.00 0.00 0.00 42 1000.3
20260504023540 15 155 3.2 6.4 0.00 0.00 0.00 41 1000.5
20260504023036 15 159 1.6 4.8 0.00 0.00 0.00 41 1000.5
20260504022532 15 136 6.4 6.4 0.00 0.00 0.00 40 1000.6
20260504022029 15 133 3.2 3.2 0.00 0.00 0.00 40 1000.7
20260504021526 15 163 3.2 4.8 0.00 0.00 0.00 39 1000.8
20260504021023 16 190 0.0 4.8 0.00 0.00 0.00 39 1000.9
20260504020520 16 125 1.6 4.8 0.00 0.00 0.00 39 1000.7
20260504020017 16 100 3.2 4.8 0.00 0.00 0.00 39 1001.0
20260504015513 16 178 3.2 3.2 0.00 0.00 0.00 39 1001.1
20260504015009 16 172 1.6 8.0 0.00 0.00 0.00 38 1001.0
20260504014505 16 124 3.2 4.8 0.00 0.00 0.00 39 1001.2
20260504014002 16 202 4.8 4.8 0.00 0.00 0.00 38 1001.1
20260504013500 17 209 3.2 8.0 0.00 0.00 0.00 40 1001.3
20260504012956 17 213 8.0 9.7 0.00 0.00 0.00 39 1001.3
20260504012454 17 200 4.8 9.7 0.00 0.00 0.00 42 1001.6
20260504011952 17 232 6.4 12.9 0.00 0.00 0.00 38 1001.5
20260504011448 17 219 9.7 11.3 0.00 0.00 0.00 41 1001.6
20260504010944 17 223 9.7 11.3 0.00 0.00 0.00 42 1001.6
20260504010440 17 241 8.0 14.5 0.00 0.00 0.00 43 1001.7
20260504005936 18 236 14.5 17.7 0.00 0.00 0.00 38 1001.8
20260504005433 18 247 9.7 20.9 0.00 0.00 0.00 40 1001.9
20260504004931 18 232 11.3 17.7 0.00 0.00 0.00 40 1001.7
20260504004428 18 262 11.3 20.9 0.00 0.00 0.00 43 1001.9
20260504003925 18 225 8.0 16.1 0.00 0.00 0.00 37 1001.7
20260504003421 18 252 12.9 17.7 0.00 0.00 0.00 37 1001.7
20260504002918 18 261 14.5 19.3 0.00 0.00 0.00 37 1001.9
20260504002415 18 264 20.9 27.4 0.00 0.00 0.00 36 1002.0
20260504001913 19 265 17.7 20.9 0.00 0.00 0.00 37 1001.9
20260504001410 18 272 14.5 19.3 0.00 0.00 0.00 37 1002.0
20260504000906 18 240 17.7 24.1 0.00 0.00 0.00 35 1002.1
20260504000404 18 246 11.3 24.1 0.00 0.00 0.00 40 1002.1
20260503235901 18 264 14.5 24.1 0.00 0.00 0.00 34 1002.1
20260503235359 19 271 19.3 20.9 0.00 0.00 0.00 34 1002.3
20260503234856 18 268 19.3 19.3 0.00 0.00 0.00 35 1002.5
20260503234354 18 258 16.1 24.1 0.00 0.00 0.00 39 1002.5
20260503233851 18 275 24.1 29.0 0.00 0.00 0.00 35 1002.4
20260503233347 18 290 9.7 14.5 0.00 0.00 0.00 38 1002.6
20260503232844 18 264 9.7 12.9 0.00 0.00 0.00 38 1002.4
20260503232341 18 275 9.7 16.1 0.00 0.00 0.00 37 1002.5
20260503231839 18 265 17.7 20.9 0.00 0.00 0.00 33 1002.8
20260503231336 18 277 14.5 24.1 0.00 0.00 0.00 39 1002.7
20260503230832 18 268 19.3 35.4 0.00 0.00 0.00 34 1002.8
20260503230329 19 276 16.1 19.3 0.00 0.00 0.00 35 1002.8
20260503225827 18 284 12.9 22.5 0.00 0.00 0.00 38 1002.8
20260503225322 18 294 17.7 20.9 0.00 0.00 0.00 35 1002.9
20260503224818 18 261 17.7 22.5 0.00 0.00 0.00 36 1003.1
20260503224316 18 284 24.1 27.4 0.00 0.00 0.00 35 1003.0
20260503223814 18 273 20.9 25.7 0.00 0.00 0.00 35 1002.8
20260503223311 18 255 27.4 30.6 0.00 0.00 0.00 35 1003.0
20260503222807 18 273 14.5 24.1 0.00 0.00 0.00 32 1002.8
20260503222305 18 285 19.3 24.1 0.00 0.00 0.00 35 1003.1
20260503221803 18 296 20.9 25.7 0.00 0.00 0.00 35 1003.1
20260503221301 18 259 12.9 25.7 0.00 0.00 0.00 35 1003.0
20260503220757 18 324 17.7 29.0 0.00 0.00 0.00 33 1003.0
20260503220254 18 263 19.3 24.1 0.00 0.00 0.00 33 1003.1
20260503215751 18 262 17.7 27.4 0.00 0.00 0.00 36 1003.2
20260503215248 18 293 9.7 22.5 0.00 0.00 0.00 35 1003.4
20260503214746 18 306 27.4 30.6 0.00 0.00 0.00 36 1003.2
20260503214242 18 265 12.9 20.9 0.00 0.00 0.00 37 1003.2
20260503213741 18 262 17.7 22.5 0.00 0.00 0.00 35 1003.5
20260503213238 18 263 17.7 24.1 0.00 0.00 0.00 35 1003.6
20260503212734 18 330 16.1 22.5 0.00 0.00 0.00 36 1003.6
20260503212232 18 307 22.5 25.7 0.00 0.00 0.00 36 1003.8
20260503211730 18 260 14.5 22.5 0.00 0.00 0.00 32 1003.8
20260503211225 18 291 16.1 20.9 0.00 0.00 0.00 34 1004.0
20260503210721 18 334 20.9 29.0 0.00 0.00 0.00 38 1004.0
20260503210219 18 292 20.9 30.6 0.00 0.00 0.00 38 1003.9
20260503205714 18 281 20.9 30.6 0.00 0.00 0.00 38 1003.9
20260503205210 18 301 14.5 20.9 0.00 0.00 0.00 34 1004.0
20260503204707 18 271 19.3 35.4 0.00 0.00 0.00 34 1004.1
20260503204205 17 246 20.9 27.4 0.00 0.00 0.00 35 1004.1
20260503203701 18 238 20.9 25.7 0.00 0.00 0.00 35 1004.5
20260503203159 17 291 14.5 30.6 0.00 0.00 0.00 37 1004.4
20260503202656 18 308 19.3 20.9 0.00 0.00 0.00 33 1004.4
20260503202154 17 271 29.0 35.4 0.00 0.00 0.00 35 1004.5
20260503201652 17 289 11.3 14.5 0.00 0.00 0.00 39 1004.6
20260503201149 17 264 20.9 24.1 0.00 0.00 0.00 35 1004.6
20260503200645 17 315 24.1 29.0 0.00 0.00 0.00 37 1004.7
20260503200141 17 303 9.7 27.4 0.00 0.00 0.00 37 1004.7
20260503195639 17 279 20.9 30.6 0.00 0.00 0.00 34 1004.8
20260503195136 17 291 20.9 24.1 0.00 0.00 0.00 37 1004.8
20260503194633 17 310 17.7 20.9 0.00 0.00 0.00 36 1005.0
20260503194128 17 334 14.5 24.1 0.00 0.00 0.00 43 1004.9
20260503193625 17 326 14.5 27.4 0.00 0.00 0.00 33 1004.9
20260503193120 17 311 11.3 14.5 0.00 0.00 0.00 37 1005.0
20260503192616 17 352 6.4 19.3 0.00 0.00 0.00 34 1005.1
20260503192112 16 300 24.1 30.6 0.00 0.00 0.00 37 1005.2
20260503191609 17 311 27.4 30.6 0.00 0.00 0.00 38 1005.1
20260503191106 17 293 19.3 22.5 0.00 0.00 0.00 38 1005.2
20260503190604 16 322 17.7 24.1 0.00 0.00 0.00 40 1005.5